Regional Weather Roundup
Issued by NWS Albany, NY

Home | Current Version | Previous Version | Graphics & Text | Print | Product List | Glossary Off
Versions: 1 2 3 4 5 6 7 8 9 10 11 12 13 14 15 16 17 18 19 20 21 22 23 24 25 26 27

000
ASUS41 KALY 291310
RWRALY

NEW YORK STATE HOURLY WEATHER ROUNDUP
NATIONAL WEATHER SERVICE ALBANY NY
900 AM EDT MON MAY 29 2017

NOTE: "FAIR" INDICATES FEW OR NO CLOUDS BELOW 12,000 FEET WITH NO
SIGNIFICANT WEATHER AND/OR NO OBSTRUCTIONS TO VISIBILITY.

NYZ032-033-038>043-046>054-057>066-NYZ062>081-082-084-291400-
EAST


CITY           SKY/WX    TMP DP  RH WIND       PRES   REMARKS
ALBANY         CLOUDY    56  51  84 SE6       29.93R
GLENS FALLS    LGT RAIN  58  51  78 SW3       29.92S
POUGHKEEPSIE   LGT RAIN  56  53  90 E3        29.91S
NEWBURGH       LGT RAIN  55  55 100 E12       29.92S FOG
MONTGOMERY     LGT RAIN  56  54  93 N6        29.92R
WHITE PLAINS   CLOUDY    55  52  89 E13G18    29.91R
ISLIP          LGT RAIN  55  53  93 E9        29.91R
NEW YORK CITY  LGT RAIN  58  54  86 E10       29.90R
CENTRAL PARK   LGT RAIN  57  55  93 VRB5      29.93R
$$

NYZ005>009-017-018-044>046-055-056-291400-
CENTRAL


CITY           SKY/WX    TMP DP  RH WIND       PRES   REMARKS
FULTON         LGT RAIN  57  55  93 SE6       29.80R FOG
SYRACUSE       CLOUDY    57  55  93 SE8       29.80F
ROME           HVY RAIN  54  54 100 E5        29.89R FOG
ELMIRA         CLOUDY    59  55  87 S6        29.82R
BINGHAMTON     CLOUDY    52  51  97 SE12      29.86S
MONTICELLO     CLOUDY    52  50  93 E8        29.93R
$$

NYZ026>034-041>043-087-291400-
NORTH


CITY           SKY/WX    TMP DP  RH WIND       PRES   REMARKS
WATERTOWN      CLOUDY    57  55  93 S15G24    29.77S
FORT DRUM      NOT AVBL
OGDENSBURG     RAIN      59  57  94 S8        29.78S
MASSENA        LGT RAIN  64  56  75 SE12      29.81S
SARANAC LAKE   CLOUDY    58  46  64 S10       29.85S
PLATTSBURGH    CLOUDY    62  50  64 SE15      29.87S
$$

NYZ001>004-010>016-019>021-085-291400-
WEST


CITY           SKY/WX    TMP DP  RH WIND       PRES   REMARKS
NIAGARA FALLS  CLOUDY    64  59  83 SW9       29.76R
BUFFALO        LGT RAIN  61  59  93 SW7       29.77R
DUNKIRK        CLOUDY    61  60  97 SW16G24   29.79R
JAMESTOWN      CLOUDY    59  55  88 SW8       29.82R
WELLSVILLE     CLOUDY    63  57  81 SW9       29.84R
ROCHESTER      LGT RAIN  64  62  93 SW9       29.76S
PENN YAN       LGT RAIN  60  57  89 SE3       29.80R FOG
$$

             KEY
       WCI = WIND CHILL INDEX
       VSB = VISIBILITY
       HX  = HEAT INDEX
$$




USA.gov is the U.S. government's official web portal to all federal, state and local government web resources and services.